Lid_Strength_Index
-0 0 0 0 0 0 0 0 -1 -1 -1 -1 -1 -1 -1 -1 -1 -1 -0 0 -0 -0
0 0 0 -0 -0 0 -0 -0 -1 -1 -1 -1 -1 -1 -1 -1 -1 -1 -1 -1 -0 -0
0 -0 -0 -0 -0 -0 -0 -1 -0 -0 -1 -1 -1 -1 -1 -0 -1 -0 -1 -1 -0 -0
0 0 -0 0 -0 -0 -1 -1 -0 -0 -0 -0 -0 -1 -1 -1 -0 0 -0 -0 0 0
0 0 0 0 -0 -0 -0 -1 -0 -1 -0 -0 -0 -1 -0 0 -0 0 0 -0 0 0
1 1 0 0 -0 -0 -0 -0 -0 -0 -0 -0 -0 -0 -0 -0 -0 0 -0 -0 0 0
1 1 0 0 -0 -0 -0 -0 -0 -0 -0 -0 -0 -0 -0 -0 -0 -0 -0 -0 -0 -0
1 0 0 0 -0 -0 -0 -0 -1 -0 -0 -0 -0 -0 -0 -0 0 0 0 0 -0 -0
1 1 1 0 0 0 0 0 -0 0 0 0 1 6 5 2 -0 0 0 1 0 -0
1 1 1 0 1 1 1 0 1 0 0 0 1 6 5 2 -0 0 0 0 0 0
1 1 1 1 1 1 1 1 1 1 0 1 3 6 5 1 -0 0 1 1 1 1
1 2 1 2 1 1 1 1 2 1 1 1 3 7 6 2 0 1 1 2 3 2
1 1 2 1 1 2 3 4 4 5 5 6 4 7 7 3 1 3 4 5 5 7
1 1 1 2 2 4 5 6 6 6 6 6 7 6 8 6 1 3 4 6 6 7